sat.trackr.live / text

‹ back to catalog

GLOBALSTAR M076

NORAD 37190 · 2010-054C

PAYLOAD ACTIVE UNKNOWN

§ Identity

Operator
Country
GLOB
Launch date
2010-10-19
Launch site
TYMSC
Launch vehicle
Mass (kg)
RCS (m²)
4.58

Purposes: comms

External: N2YO · Heavens-Above · Gunter

§ Orbital elements

Epoch: 2026-05-25T01:22:52.485024Z

Period
114.08 min
Inclination
52.0004°
Eccentricity
0.0000203
Mean motion
12.62261802 rev/d
Perigee alt
1,413.5 km
Apogee alt
1,413.8 km
Semi-major
7,791.8 km
B*
6.6891e-5
RAAN
178.5497°
Arg perigee
22.7372°
Mean anomaly
354.8520°
Rev number
71,995

§ Raw data

GLOBALSTAR M0761 37190U 10054C   26145.05755191 -.00000092  00000+0  66891-4 0  99962 37190  52.0004 178.5497 0000203  22.7372 354.8520 12.62261802719950

JSON: /api/v1/satellites/37190 · /tle

For live sub-satellite position, see the globe view (requires WebGL).

§ Visibility from observer

Set your observer location to see the next 7 days of passes ≥ 10°. The values pass through the URL so the page stays shareable.

No JS? Fill the form by hand. The geolocation button needs JavaScript.